| time (UTC) | temp C | wind direction | speed KPH | gust KPH | rain 1hr cm | rain 24hr cm | rain mn cm | humidity % | barometer mb |
| 20260509090513 | 15 | 86 | 0.0 | 3.2 | 0.00 | 0.00 | 0.00 | 74 | 1024.4 |
| 20260509085441 | 15 | 86 | 0.0 | 3.2 | 0.00 | 0.00 | 0.00 | 72 | 1024.4 |
| 20260509084440 | 16 | 86 | 0.0 | 0.0 | 0.00 | 0.00 | 0.00 | 71 | 1024.4 |
| 20260509083336 | 16 | 86 | 0.0 | 0.0 | 0.00 | 0.00 | 0.00 | 69 | 1024.1 |
| 20260509082334 | 16 | 86 | 0.0 | 0.0 | 0.00 | 0.00 | 0.00 | 67 | 1024.1 |
| 20260509081333 | 17 | 86 | 0.0 | 4.8 | 0.00 | 0.00 | 0.00 | 66 | 1024.1 |
| 20260509080331 | 17 | 86 | 0.0 | 4.8 | 0.00 | 0.00 | 0.00 | 65 | 1023.7 |
| 20260509075330 | 17 | 86 | 0.0 | 1.6 | 0.00 | 0.00 | 0.00 | 64 | 1023.7 |
| 20260509074329 | 17 | 86 | 0.0 | 3.2 | 0.00 | 0.00 | 0.00 | 64 | 1023.7 |
| 20260509073327 | 17 | 86 | 0.0 | 11.3 | 0.00 | 0.00 | 0.00 | 64 | 1023.4 |
| 20260509072325 | 17 | 90 | 4.8 | 11.3 | 0.00 | 0.00 | 0.00 | 63 | 1023.4 |
| 20260509071323 | 18 | 81 | 3.2 | 9.7 | 0.00 | 0.00 | 0.00 | 64 | 1023.4 |
| 20260509070321 | 18 | 85 | 3.2 | 9.7 | 0.00 | 0.00 | 0.00 | 63 | 1023.4 |
| 20260509065248 | 18 | 118 | 3.2 | 11.3 | 0.00 | 0.00 | 0.00 | 62 | 1023.1 |
| 20260509064246 | 18 | 87 | 3.2 | 11.3 | 0.00 | 0.00 | 0.00 | 63 | 1023.1 |
| 20260509063245 | 18 | 105 | 3.2 | 11.3 | 0.00 | 0.00 | 0.00 | 63 | 1022.7 |
| 20260509062243 | 18 | 111 | 3.2 | 8.0 | 0.00 | 0.00 | 0.00 | 64 | 1022.7 |
| 20260509061241 | 18 | 115 | 4.8 | 9.7 | 0.00 | 0.00 | 0.00 | 60 | 1022.7 |
| 20260509060240 | 18 | 102 | 3.2 | 12.9 | 0.00 | 0.00 | 0.00 | 60 | 1022.7 |
| 20260509055238 | 18 | 85 | 6.4 | 12.9 | 0.00 | 0.00 | 0.00 | 60 | 1022.4 |
| 20260509054237 | 19 | 144 | 3.2 | 14.5 | 0.00 | 0.00 | 0.00 | 57 | 1022.4 |
| 20260509053205 | 19 | 130 | 4.8 | 14.5 | 0.00 | 0.00 | 0.00 | 56 | 1022.4 |
| 20260509052203 | 19 | 111 | 1.6 | 12.9 | 0.00 | 0.00 | 0.00 | 57 | 1022.4 |
| 20260509051202 | 19 | 131 | 3.2 | 14.5 | 0.00 | 0.00 | 0.00 | 57 | 1022.4 |
| 20260509050200 | 20 | 96 | 4.8 | 14.5 | 0.00 | 0.00 | 0.00 | 55 | 1022.4 |
| 20260509045158 | 20 | 80 | 4.8 | 11.3 | 0.00 | 0.00 | 0.00 | 54 | 1022.1 |
| 20260509044156 | 20 | 130 | 3.2 | 9.7 | 0.00 | 0.00 | 0.00 | 53 | 1022.1 |
| 20260509043155 | 20 | 119 | 3.2 | 12.9 | 0.00 | 0.00 | 0.00 | 54 | 1022.1 |
| 20260509042153 | 21 | 119 | 3.2 | 12.9 | 0.00 | 0.00 | 0.00 | 54 | 1022.1 |
| 20260509041121 | 21 | 111 | 3.2 | 11.3 | 0.00 | 0.00 | 0.00 | 51 | 1022.1 |
| 20260509040120 | 21 | 111 | 4.8 | 6.4 | 0.00 | 0.00 | 0.00 | 51 | 1022.1 |
| 20260509035047 | 21 | 100 | 1.6 | 4.8 | 0.00 | 0.00 | 0.00 | 51 | 1022.1 |
| 20260509034045 | 21 | 130 | 1.6 | 8.0 | 0.00 | 0.00 | 0.00 | 52 | 1022.1 |
| 20260509033044 | 21 | 96 | 3.2 | 12.9 | 0.00 | 0.00 | 0.00 | 51 | 1022.4 |
| 20260509032011 | 21 | 118 | 3.2 | 11.3 | 0.00 | 0.00 | 0.00 | 53 | 1022.4 |
| 20260509030938 | 21 | 114 | 3.2 | 11.3 | 0.00 | 0.00 | 0.00 | 52 | 1022.4 |
| 20260509025937 | 21 | 95 | 3.2 | 8.0 | 0.00 | 0.00 | 0.00 | 51 | 1022.4 |
| 20260509024935 | 22 | 90 | 1.6 | 9.7 | 0.00 | 0.00 | 0.00 | 51 | 1022.8 |
| 20260509023933 | 22 | 162 | 1.6 | 4.8 | 0.00 | 0.00 | 0.00 | 46 | 1022.8 |
| 20260509022932 | 22 | 174 | 1.6 | 4.8 | 0.00 | 0.00 | 0.00 | 44 | 1022.8 |
| 20260509021930 | 22 | 218 | 1.6 | 4.8 | 0.00 | 0.00 | 0.00 | 44 | 1023.1 |
| 20260509020928 | 22 | 256 | 1.6 | 4.8 | 0.00 | 0.00 | 0.00 | 45 | 1023.1 |
| 20260509015855 | 22 | 276 | 1.6 | 4.8 | 0.00 | 0.00 | 0.00 | 47 | 1023.4 |
| 20260509014821 | 22 | 261 | 1.6 | 4.8 | 0.00 | 0.00 | 0.00 | 48 | 1023.4 |
| 20260509013820 | 21 | 266 | 1.6 | 4.8 | 0.00 | 0.00 | 0.00 | 49 | 1023.8 |
| 20260509012818 | 21 | 299 | 1.6 | 4.8 | 0.00 | 0.00 | 0.00 | 50 | 1023.8 |
| 20260509011817 | 21 | 206 | 1.6 | 4.8 | 0.00 | 0.00 | 0.00 | 49 | 1023.8 |
| 20260509010815 | 21 | 196 | 1.6 | 4.8 | 0.00 | 0.00 | 0.00 | 51 | 1023.8 |
| 20260509005814 | 20 | 345 | 1.6 | 4.8 | 0.00 | 0.00 | 0.00 | 52 | 1024.1 |
| 20260509004812 | 20 | 286 | 1.6 | 4.8 | 0.00 | 0.00 | 0.00 | 52 | 1024.1 |
| 20260509003811 | 20 | 292 | 1.6 | 4.8 | 0.00 | 0.00 | 0.00 | 51 | 1024.1 |
| 20260509002810 | 20 | 228 | 3.2 | 4.8 | 0.00 | 0.00 | 0.00 | 53 | 1024.4 |
| 20260509001808 | 19 | 311 | 3.2 | 4.8 | 0.00 | 0.00 | 0.00 | 55 | 1024.1 |
| 20260509000736 | 19 | 166 | 1.6 | 6.4 | 0.00 | 0.00 | 0.00 | 56 | 1024.4 |
| 20260508235735 | 19 | 169 | 3.2 | 6.4 | 0.00 | 0.00 | 0.00 | 56 | 1024.4 |
| 20260508234733 | 18 | 273 | 0.0 | 4.8 | 0.00 | 0.00 | 0.00 | 58 | 1024.4 |
| 20260508233731 | 18 | 235 | 1.6 | 4.8 | 0.00 | 0.00 | 0.00 | 60 | 1024.4 |
| 20260508232729 | 18 | 247 | 1.6 | 11.3 | 0.00 | 0.00 | 0.00 | 62 | 1024.4 |
| 20260508231728 | 17 | 276 | 3.2 | 11.3 | 0.00 | 0.00 | 0.00 | 63 | 1024.4 |
| 20260508230726 | 17 | 304 | 1.6 | 4.8 | 0.00 | 0.00 | 0.00 | 63 | 1024.4 |
| 20260508225724 | 17 | 346 | 3.2 | 4.8 | 0.00 | 0.00 | 0.00 | 66 | 1024.4 |
| 20260508224722 | 16 | 209 | 1.6 | 6.4 | 0.00 | 0.00 | 0.00 | 66 | 1024.4 |
| 20260508223721 | 16 | 212 | 0.0 | 6.4 | 0.00 | 0.00 | 0.00 | 67 | 1024.4 |
| 20260508222719 | 16 | 290 | 3.2 | 4.8 | 0.00 | 0.00 | 0.00 | 67 | 1024.4 |
| 20260508221718 | 16 | 44 | 1.6 | 3.2 | 0.00 | 0.00 | 0.00 | 69 | 1024.4 |
| 20260508220716 | 15 | 261 | 1.6 | 3.2 | 0.00 | 0.00 | 0.00 | 72 | 1024.1 |
| 20260508215644 | 14 | 291 | 1.6 | 3.2 | 0.00 | 0.00 | 0.00 | 72 | 1024.1 |
| 20260508214642 | 14 | 293 | 1.6 | 3.2 | 0.00 | 0.00 | 0.00 | 74 | 1024.1 |
| 20260508213641 | 13 | 293 | 1.6 | 4.8 | 0.00 | 0.00 | 0.00 | 75 | 1024.1 |
| 20260508212639 | 13 | 55 | 1.6 | 6.4 | 0.00 | 0.00 | 0.00 | 77 | 1023.7 |
| 20260508211638 | 12 | 168 | 1.6 | 3.2 | 0.00 | 0.00 | 0.00 | 77 | 1023.7 |
| 20260508210636 | 12 | 238 | 1.6 | 1.6 | 0.00 | 0.00 | 0.00 | 78 | 1023.7 |
| 20260508205635 | 12 | 238 | 0.0 | 3.2 | 0.00 | 0.00 | 0.00 | 77 | 1023.4 |
| 20260508204634 | 12 | 238 | 0.0 | 3.2 | 0.00 | 0.00 | 0.00 | 76 | 1023.4 |
| 20260508203632 | 12 | 45 | 1.6 | 4.8 | 0.00 | 0.00 | 0.00 | 75 | 1023.0 |
| 20260508202631 | 13 | 45 | 0.0 | 4.8 | 0.00 | 0.00 | 0.00 | 75 | 1023.0 |
| 20260508201629 | 13 | 275 | 1.6 | 4.8 | 0.00 | 0.00 | 0.00 | 75 | 1023.0 |
| 20260508200556 | 13 | 329 | 1.6 | 3.2 | 0.00 | 0.00 | 0.00 | 75 | 1022.7 |
| 20260508195555 | 13 | 268 | 1.6 | 3.2 | 0.00 | 0.00 | 0.00 | 75 | 1022.7 |
| 20260508194553 | 13 | 47 | 3.2 | 3.2 | 0.00 | 0.00 | 0.00 | 75 | 1022.4 |
| 20260508193552 | 13 | 47 | 0.0 | 1.6 | 0.00 | 0.00 | 0.00 | 75 | 1022.4 |
| 20260508192520 | 13 | 47 | 0.0 | 1.6 | 0.00 | 0.00 | 0.00 | 75 | 1022.0 |
| 20260508191518 | 13 | 47 | 0.0 | 0.0 | 0.00 | 0.00 | 0.00 | 75 | 1022.0 |
| 20260508190517 | 13 | 47 | 0.0 | 4.8 | 0.00 | 0.00 | 0.00 | 75 | 1022.0 |
| 20260508185515 | 13 | 47 | 1.6 | 4.8 | 0.00 | 0.00 | 0.00 | 74 | 1022.0 |
| 20260508184513 | 13 | 47 | 0.0 | 3.2 | 0.00 | 0.00 | 0.00 | 74 | 1021.7 |
| 20260508183512 | 13 | 47 | 0.0 | 4.8 | 0.00 | 0.00 | 0.00 | 74 | 1021.7 |
| 20260508182510 | 13 | 259 | 1.6 | 4.8 | 0.00 | 0.00 | 0.00 | 74 | 1021.7 |
| 20260508181508 | 13 | 258 | 0.0 | 3.2 | 0.00 | 0.00 | 0.00 | 74 | 1021.7 |
| 20260508180435 | 13 | 258 | 0.0 | 3.2 | 0.00 | 0.00 | 0.00 | 74 | 1021.7 |
| 20260508175433 | 13 | 258 | 0.0 | 3.2 | 0.00 | 0.00 | 0.00 | 73 | 1021.7 |
| 20260508174431 | 13 | 251 | 1.6 | 1.6 | 0.00 | 0.00 | 0.00 | 73 | 1021.7 |
| 20260508173430 | 13 | 251 | 0.0 | 3.2 | 0.00 | 0.00 | 0.00 | 73 | 1021.7 |
| 20260508172428 | 13 | 251 | 1.6 | 3.2 | 0.00 | 0.00 | 0.00 | 73 | 1021.7 |
| 20260508171355 | 13 | 251 | 1.6 | 3.2 | 0.00 | 0.00 | 0.00 | 73 | 1021.7 |
| 20260508170353 | 13 | 251 | 0.0 | 3.2 | 0.00 | 0.00 | 0.00 | 73 | 1021.7 |
| 20260508165351 | 13 | 256 | 1.6 | 3.2 | 0.00 | 0.00 | 0.00 | 73 | 1021.7 |
| 20260508164349 | 13 | 274 | 0.0 | 4.8 | 0.00 | 0.00 | 0.00 | 73 | 1021.7 |
| 20260508163348 | 13 | 243 | 3.2 | 4.8 | 0.00 | 0.00 | 0.00 | 74 | 1021.7 |
| 20260508162347 | 13 | 258 | 0.0 | 3.2 | 0.00 | 0.00 | 0.00 | 73 | 1021.7 |
| 20260508161345 | 13 | 258 | 0.0 | 3.2 | 0.00 | 0.00 | 0.00 | 72 | 1021.4 |
| 20260508160344 | 13 | 258 | 1.6 | 3.2 | 0.00 | 0.00 | 0.00 | 72 | 1021.4 |
| 20260508155342 | 13 | 258 | 0.0 | 3.2 | 0.00 | 0.00 | 0.00 | 72 | 1021.4 |
| 20260508154341 | 13 | 258 | 0.0 | 3.2 | 0.00 | 0.00 | 0.00 | 71 | 1021.4 |
| 20260508153339 | 13 | 258 | 1.6 | 3.2 | 0.00 | 0.00 | 0.00 | 71 | 1021.4 |
| 20260508152338 | 13 | 258 | 1.6 | 3.2 | 0.00 | 0.00 | 0.00 | 71 | 1021.4 |
| 20260508151337 | 13 | 258 | 0.0 | 4.8 | 0.00 | 0.00 | 0.00 | 71 | 1021.4 |
| 20260508150335 | 13 | 258 | 1.6 | 4.8 | 0.00 | 0.00 | 0.00 | 71 | 1021.7 |
| 20260508145333 | 13 | 258 | 3.2 | 3.2 | 0.00 | 0.00 | 0.00 | 71 | 1021.4 |
| 20260508144332 | 13 | 258 | 0.0 | 3.2 | 0.00 | 0.00 | 0.00 | 71 | 1021.4 |
| 20260508143300 | 13 | 258 | 1.6 | 1.6 | 0.00 | 0.00 | 0.00 | 72 | 1021.4 |
| 20260508142258 | 13 | 258 | 0.0 | 0.0 | 0.00 | 0.00 | 0.00 | 72 | 1021.4 |
| 20260508141256 | 13 | 258 | 0.0 | 1.6 | 0.00 | 0.00 | 0.00 | 71 | 1021.4 |
| 20260508140254 | 13 | 258 | 0.0 | 1.6 | 0.00 | 0.00 | 0.00 | 71 | 1021.4 |
| 20260508135253 | 13 | 258 | 0.0 | 1.6 | 0.00 | 0.00 | 0.00 | 71 | 1021.4 |
| 20260508134252 | 13 | 258 | 0.0 | 1.6 | 0.00 | 0.00 | 0.00 | 72 | 1021.4 |
| 20260508133219 | 13 | 258 | 0.0 | 0.0 | 0.00 | 0.00 | 0.00 | 72 | 1021.0 |
| 20260508132217 | 13 | 258 | 0.0 | 0.0 | 0.00 | 0.00 | 0.00 | 72 | 1021.0 |
| 20260508131215 | 13 | 258 | 0.0 | 0.0 | 0.00 | 0.00 | 0.00 | 71 | 1021.0 |
| 20260508130214 | 13 | 258 | 0.0 | 0.0 | 0.00 | 0.00 | 0.00 | 71 | 1021.0 |
| 20260508125212 | 13 | 258 | 0.0 | 0.0 | 0.00 | 0.00 | 0.00 | 71 | 1021.0 |
| 20260508124140 | 13 | 258 | 0.0 | 0.0 | 0.00 | 0.00 | 0.00 | 71 | 1021.0 |
| 20260508123138 | 14 | 258 | 0.0 | 1.6 | 0.00 | 0.00 | 0.00 | 71 | 1021.0 |
| 20260508122136 | 14 | 258 | 0.0 | 1.6 | 0.00 | 0.00 | 0.00 | 70 | 1021.0 |
| 20260508121032 | 14 | 258 | 0.0 | 1.6 | 0.00 | 0.00 | 0.00 | 70 | 1021.0 |
| 20260508120031 | 14 | 258 | 0.0 | 1.6 | 0.00 | 0.00 | 0.00 | 69 | 1021.0 |
| 20260508115029 | 14 | 258 | 0.0 | 1.6 | 0.00 | 0.00 | 0.00 | 68 | 1021.0 |
| 20260508114028 | 14 | 258 | 0.0 | 1.6 | 0.00 | 0.00 | 0.00 | 68 | 1021.0 |
| 20260508113026 | 14 | 258 | 1.6 | 1.6 | 0.00 | 0.00 | 0.00 | 68 | 1021.0 |
| 20260508112025 | 14 | 258 | 1.6 | 1.6 | 0.00 | 0.00 | 0.00 | 68 | 1021.0 |
| 20260508111024 | 15 | 258 | 0.0 | 1.6 | 0.00 | 0.00 | 0.00 | 67 | 1020.7 |
| 20260508110022 | 15 | 258 | 0.0 | 3.2 | 0.00 | 0.00 | 0.00 | 66 | 1020.7 |
| 20260508105020 | 15 | 258 | 1.6 | 3.2 | 0.00 | 0.00 | 0.00 | 66 | 1020.7 |
| 20260508104019 | 15 | 258 | 0.0 | 4.8 | 0.00 | 0.00 | 0.00 | 65 | 1020.3 |
| 20260508103017 | 15 | 252 | 3.2 | 4.8 | 0.00 | 0.00 | 0.00 | 65 | 1020.3 |
| 20260508101913 | 15 | 291 | 3.2 | 6.4 | 0.00 | 0.00 | 0.00 | 64 | 1020.3 |
| 20260508100840 | 15 | 249 | 1.6 | 6.4 | 0.00 | 0.00 | 0.00 | 63 | 1020.0 |
| 20260508095838 | 15 | 265 | 1.6 | 11.3 | 0.00 | 0.00 | 0.00 | 63 | 1020.0 |
| 20260508094836 | 15 | 254 | 1.6 | 11.3 | 0.00 | 0.00 | 0.00 | 62 | 1020.0 |
| 20260508093835 | 16 | 259 | 1.6 | 9.7 | 0.00 | 0.00 | 0.00 | 61 | 1019.6 |
| 20260508092834 | 16 | 278 | 1.6 | 11.3 | 0.00 | 0.00 | 0.00 | 60 | 1019.6 |
| 20260508091832 | 16 | 253 | 3.2 | 14.5 | 0.00 | 0.00 | 0.00 | 58 | 1019.3 |
| 20260508090830 | 16 | 268 | 1.6 | 14.5 | 0.00 | 0.00 | 0.00 | 57 | 1019.3 |